Location: Hylvaty SDH
(49.9612°N, 16.4057°E)
Time: 20:40:23
(UTC+02:00)

Transit 4A - Pass Details

Date: 10 August 2020
Orbit: 862 x 982 km, 66.8° (Epoch: 28 September)

Event Time Altitude Azimuth Distance (km) Brightness Sun altitude
Rises 19:57:35 0° 317° (NW) 3,659 12.4 2.7°
Reaches altitude 10° 20:00:31 10° 306° (NW) 2,721 12.2 2.2°
Maximum altitude 20:05:40 27° 252° (WSW) 1,802 10.2 1.4°
Drops below altitude 10° 20:10:50 10° 197° (SSW) 2,728 10.3 0.7°
Sets 20:13:47 0° 186° (S) 3,670 10.8 0.2°
